Location: Skalnate Pleso
(49.1889°N, 20.2450°E)
Time: 16:29:45
(UTC+02:00)

Cosmos 1605 Rocket - Pass Details

Date: 27 February 2020
Orbit: 944 x 1007 km, 82.9° (Epoch: 06 April)

Event Time Altitude Azimuth Distance (km) Brightness Sun altitude
Rises 04:01:22 0° 344° (NNW) 3,673 7.0 -24.4°
Reaches altitude 10° 04:04:06 10° 335° (NNW) 2,712 6.2 -23.9°
Enters shadow 04:06:52 24° 316° (NW) 1,891 5.2 -23.5°
